Algona, IA

7:20 PM CDT on July 25, 2017 (GMT -0500)
Algona Municipal

Weather History for KAXA - January, 2014

Change the Weather History Date:

Wednesday, January 29, 2014

  Actual Average Record
Temperature  
Mean Temperature 18 °F -  
Max Temperature 37 °F 25 °F 37 °F (2014)
Min Temperature -2 °F 10 °F -16 °F (2004)
Degree Days  
Heating Degree Days 48    
Moisture  
Dew Point 3 °F    
Average Humidity 55    
Maximum Humidity 67    
Minimum Humidity 33    
Precipitation  
Precipitation 0.05 in - - ()
Sea Level Pressure  
Sea Level Pressure 29.86 in    
Wind  
Wind Speed 14 mph (SSW)    
Max Wind Speed 30 mph    
Max Gust Speed 39 mph    
Visibility 10 miles    
Events      
Averages and records for this station are not official NWS values.
T = Trace of Precipitation, MM = Missing Value Source: NWS Daily Summary

Daily Weather History Graph

Daily Weather History Graph

Search for Another Location

Airport or City:

Trip Planner

Search our weather history database for the weather conditions in past years. The results will help you decide how hot, cold, wet, or windy it might be!

Date:

Astronomy

Jan. 29, 2014 Rise Set
Actual Time 7:35 AM CST 5:25 PM CST
Civil Twilight 7:04 AM CST 5:56 PM CST
Nautical Twilight 6:30 AM CST 6:30 PM CST
Astronomical Twilight 5:57 AM CST 7:03 PM CST
Moon 6:12 AM CST (1/29) 4:26 PM CST (1/29)
Length of Visible Light 10h 51m
Length of Day
9h 50m
Waning Crescent, 2% of the Moon is Illuminated
Jan 29
Waning Crescent
Jan 30
New
Feb 6
First Quarter
Feb 14
Full
Feb 22
Last Quarter

Hourly Weather History & Observations

Time (CST) Temp. Windchill Dew Point Humidity Pressure Visibility Wind Dir Wind Speed Gust Speed Precip Events Conditions
12:15 AM -2.2 °F -16.8 °F -11.2 °F 66% 30.12 in 10.0 mi SW 8.1 mph - N/A   Clear
12:35 AM -2.2 °F -18.0 °F -11.2 °F 66% 30.11 in 10.0 mi SW 9.2 mph - N/A   Clear
12:55 AM -2.2 °F -18.9 °F -11.2 °F 66% 30.11 in 10.0 mi SW 10.4 mph - N/A   Clear
1:15 AM -2.2 °F -20.7 °F -11.2 °F 66% 30.11 in 10.0 mi SW 12.7 mph - N/A   Clear
1:35 AM -2.2 °F -19.9 °F -11.2 °F 66% 30.11 in 10.0 mi SW 11.5 mph - N/A   Clear
1:55 AM -2.2 °F -19.9 °F -11.2 °F 66% 30.10 in 10.0 mi SW 11.5 mph - N/A   Clear
2:15 AM -2.2 °F -19.9 °F -11.2 °F 66% 30.10 in 10.0 mi SW 11.5 mph - N/A   Clear
2:35 AM -2.2 °F -18.9 °F -11.2 °F 66% 30.09 in 10.0 mi SW 10.4 mph - N/A   Clear
2:55 AM -2.2 °F -18.9 °F -11.2 °F 66% 30.09 in 10.0 mi SW 10.4 mph - N/A   Clear
3:15 AM -2.2 °F -18.9 °F -11.2 °F 66% 30.08 in 10.0 mi SW 10.4 mph - N/A   Clear
3:35 AM -2.2 °F -18.0 °F -11.2 °F 66% 30.08 in 10.0 mi SSW 9.2 mph - N/A   Clear
3:55 AM -2.2 °F -18.0 °F -11.2 °F 66% 30.07 in 10.0 mi SW 9.2 mph - N/A   Clear
4:15 AM -2.2 °F -18.9 °F -11.2 °F 66% 30.06 in 10.0 mi SW 10.4 mph - N/A   Clear
4:35 AM -2.2 °F -19.9 °F -11.2 °F 66% 30.05 in 10.0 mi SW 11.5 mph - N/A   Clear
4:55 AM -2.2 °F -19.9 °F -11.2 °F 66% 30.05 in 10.0 mi SW 11.5 mph - N/A   Clear
5:15 AM -2.2 °F -18.0 °F -11.2 °F 66% 30.04 in 10.0 mi SW 9.2 mph - N/A   Clear
5:35 AM -2.2 °F -18.0 °F -11.2 °F 66% 30.03 in 10.0 mi SW 9.2 mph - N/A   Clear
5:55 AM -2.2 °F -18.9 °F -11.2 °F 66% 30.02 in 10.0 mi SW 10.4 mph - N/A   Clear
6:15 AM -2.2 °F -18.9 °F -11.2 °F 66% 30.01 in 10.0 mi SSW 10.4 mph - N/A   Clear
6:35 AM -0.4 °F -16.7 °F -9.4 °F 66% 30.00 in 10.0 mi SSW 10.4 mph - N/A   Clear
6:55 AM -0.4 °F -19.2 °F -9.4 °F 66% 30.00 in 10.0 mi SSW 13.8 mph - N/A   Clear
7:15 AM -0.4 °F -19.2 °F -9.4 °F 66% 29.99 in 10.0 mi SSW 13.8 mph - N/A   Clear
7:35 AM -0.4 °F -18.4 °F -9.4 °F 66% 29.99 in 10.0 mi SSW 12.7 mph - N/A   Clear
7:55 AM -0.4 °F -16.7 °F -9.4 °F 66% 29.98 in 10.0 mi SSW 10.4 mph - N/A   Clear
8:15 AM -0.4 °F -17.6 °F -9.4 °F 66% 29.98 in 10.0 mi South 11.5 mph - N/A   Clear
8:35 AM 3.2 °F -13.9 °F -7.6 °F 61% 29.97 in 10.0 mi South 12.7 mph - N/A   Clear
8:55 AM 3.2 °F -12.2 °F -5.8 °F 66% 29.97 in 10.0 mi SSW 10.4 mph - N/A   Clear
9:15 AM 5.0 °F -11.6 °F -4.0 °F 66% 29.97 in 10.0 mi SSW 12.7 mph - N/A   Clear
9:35 AM 8.6 °F -7.7 °F -0.4 °F 67% 29.97 in 10.0 mi SSW 13.8 mph - N/A   Clear
9:55 AM 14.0 °F -1.4 °F 3.2 °F 62% 29.99 in - South 15.0 mph - 0.05 in   Clear
10:15 AM 17.6 °F 2.7 °F 3.2 °F 53% 29.98 in 10.0 mi SSW 16.1 mph - N/A   Unknown
10:35 AM 21.2 °F 7.3 °F 5.0 °F 50% 29.96 in 10.0 mi SSW 16.1 mph - N/A   Clear
10:55 AM 23.0 °F 9.2 °F 6.8 °F 50% 29.96 in 10.0 mi SSW 17.3 mph 24.2 mph N/A   Clear
11:15 AM 24.8 °F 9.6 °F 6.8 °F 46% 29.93 in 10.0 mi SSW 23.0 mph - N/A   Clear
11:35 AM 26.6 °F 12.4 °F 6.8 °F 43% 29.93 in 10.0 mi SSW 21.9 mph - N/A   Clear
11:55 AM 28.4 °F 14.7 °F 8.6 °F 43% 29.90 in 10.0 mi SSW 21.9 mph 27.6 mph N/A   Clear
12:15 PM 30.2 °F 16.5 °F 8.6 °F 40% 29.89 in 10.0 mi SSW 24.2 mph - N/A   Clear
12:35 PM 30.2 °F 16.2 °F 8.6 °F 40% 29.87 in 10.0 mi SSW 25.3 mph 34.5 mph N/A   Clear
12:55 PM 32.0 °F 18.4 °F 8.6 °F 38% 29.84 in 10.0 mi SSW 26.5 mph 33.4 mph N/A   Clear
1:15 PM 32.0 °F 17.6 °F 8.6 °F 38% 29.82 in 10.0 mi SSW 29.9 mph - N/A   Clear
1:35 PM 33.8 °F 20.5 °F 8.6 °F 35% 29.81 in 10.0 mi SSW 27.6 mph 34.5 mph N/A   Clear
1:55 PM 35.6 °F 23.7 °F 10.4 °F 35% 29.79 in 10.0 mi SSW 24.2 mph 33.4 mph N/A   Clear
2:15 PM 35.6 °F 22.5 °F 10.4 °F 35% 29.77 in 10.0 mi SSW 29.9 mph 35.7 mph N/A   Clear
2:35 PM 37.4 °F 25.9 °F 10.4 °F 33% 29.76 in 10.0 mi SSW 25.3 mph 36.8 mph N/A   Clear
2:55 PM 37.4 °F 25.2 °F 10.4 °F 33% 29.74 in 10.0 mi SSW 28.8 mph 39.1 mph N/A   Clear
3:15 PM 37.4 °F 25.2 °F 10.4 °F 33% 29.73 in 10.0 mi SSW 28.8 mph 38.0 mph N/A   Clear
3:35 PM 37.4 °F 25.4 °F 10.4 °F 33% 29.72 in 10.0 mi SSW 27.6 mph 39.1 mph N/A   Clear
3:55 PM 37.4 °F 25.0 °F 10.4 °F 33% 29.71 in 10.0 mi SSW 29.9 mph 36.8 mph N/A   Clear
4:15 PM 37.4 °F 25.4 °F 10.4 °F 33% 29.71 in 10.0 mi SSW 27.6 mph 34.5 mph N/A   Clear
4:35 PM 37.4 °F 26.1 °F 12.2 °F 36% 29.70 in 10.0 mi SSW 24.2 mph 31.1 mph N/A   Clear
4:55 PM 35.6 °F 24.2 °F 12.2 °F 38% 29.69 in 10.0 mi SSW 21.9 mph 29.9 mph N/A   Clear
5:15 PM 35.6 °F 24.0 °F 12.2 °F 38% 29.69 in 10.0 mi SSW 23.0 mph 29.9 mph N/A   Clear
5:35 PM 33.8 °F 21.6 °F 14.0 °F 44% 29.68 in 10.0 mi SSW 23.0 mph - N/A   Clear
5:55 PM 33.8 °F 22.5 °F 14.0 °F 44% 29.69 in 10.0 mi SSW 19.6 mph - N/A   Clear
6:15 PM 32.0 °F 20.8 °F 14.0 °F 48% 29.68 in 10.0 mi South 17.3 mph - N/A   Clear
6:35 PM 30.2 °F 18.1 °F 14.0 °F 51% 29.67 in 10.0 mi South 18.4 mph - N/A   Clear
6:55 PM 30.2 °F 18.1 °F 14.0 °F 51% 29.67 in 10.0 mi South 18.4 mph - N/A   Clear
7:15 PM 28.4 °F 16.2 °F 14.0 °F 55% 29.67 in 10.0 mi South 17.3 mph - N/A   Clear
7:35 PM 28.4 °F 15.8 °F 14.0 °F 55% 29.67 in 10.0 mi South 18.4 mph - N/A   Clear
7:55 PM 28.4 °F 16.2 °F 14.0 °F 55% 29.66 in 10.0 mi South 17.3 mph - N/A   Clear
8:15 PM 28.4 °F 15.8 °F 14.0 °F 55% 29.65 in 10.0 mi South 18.4 mph - N/A   Clear
8:35 PM 26.6 °F 13.4 °F 14.0 °F 59% 29.64 in 10.0 mi South 18.4 mph - N/A   Clear
8:55 PM 26.6 °F 13.1 °F 14.0 °F 59% 29.63 in 10.0 mi South 19.6 mph - N/A   Clear
9:15 PM 26.6 °F 13.4 °F 14.0 °F 59% 29.63 in 10.0 mi South 18.4 mph - N/A   Clear
9:35 PM 26.6 °F 13.8 °F 14.0 °F 59% 29.62 in 10.0 mi South 17.3 mph - N/A   Clear
9:55 PM 26.6 °F 13.8 °F 14.0 °F 59% 29.61 in 10.0 mi South 17.3 mph - N/A   Clear
10:15 PM 26.6 °F 13.8 °F 14.0 °F 59% 29.60 in 10.0 mi South 17.3 mph - N/A   Clear
10:35 PM 26.6 °F 13.8 °F 12.2 °F 55% 29.59 in 10.0 mi South 17.3 mph - N/A   Clear
10:55 PM 26.6 °F 14.7 °F 14.0 °F 59% 29.59 in - South 15.0 mph - N/A   Clear
11:15 PM 26.6 °F 15.2 °F 14.0 °F 59% 29.58 in 10.0 mi South 13.8 mph - N/A   Clear
11:35 PM 26.6 °F 13.8 °F 14.0 °F 59% 29.57 in 10.0 mi South 17.3 mph - N/A   Clear
11:55 PM 28.4 °F 15.8 °F 14.0 °F 55% 29.56 in 10.0 mi South 18.4 mph - N/A   Clear